EW4436 Weather Reports


time (UTC)temp
F
wind
direction
speed
knots
gust
knots
rain 1hr
in
rain 24hr
in
rain mn
in
humidity
%
barometer
mb
20260504194103 76 352 1.7 6.1 0.00 0.00 0.00 38 1007.1
20260504193603 77 351 2.6 7.0 0.00 0.00 0.00 40 1007.3
20260504193103 76 350 3.5 6.1 0.00 0.00 0.00 40 1007.3
20260504192603 76 349 3.5 5.2 0.00 0.00 0.00 39 1007.4
20260504192104 76 346 4.3 7.0 0.00 0.00 0.00 39 1007.5
20260504191604 76 350 4.3 5.2 0.00 0.00 0.00 40 1007.7
20260504191104 76 348 4.3 6.1 0.00 0.00 0.00 39 1007.7
20260504190604 76 348 0.9 6.1 0.00 0.00 0.00 39 1007.6
20260504190104 75 350 1.7 5.2 0.00 0.00 0.00 38 1007.7
20260504185604 75 349 1.7 6.1 0.00 0.00 0.00 39 1007.8
20260504185103 75 351 4.3 7.0 0.00 0.00 0.00 38 1007.8
20260504184603 75 351 2.6 7.0 0.00 0.00 0.00 39 1008.0
20260504184103 76 348 2.6 7.0 0.00 0.00 0.00 38 1007.9
20260504183603 75 349 3.5 10.4 0.00 0.00 0.00 37 1008.2
20260504183104 75 344 6.1 8.7 0.00 0.00 0.00 38 1008.1
20260504182104 76 351 2.6 8.7 0.00 0.00 0.00 37 1008.3
20260504181604 76 347 4.3 8.7 0.00 0.00 0.00 37 1008.5
20260504181103 76 347 5.2 7.0 0.00 0.00 0.00 36 1008.4
20260504180603 75 352 4.3 8.7 0.00 0.00 0.00 37 1008.4
20260504180104 75 346 5.2 8.7 0.00 0.00 0.00 36 1008.5
20260504175604 75 342 5.2 13.0 0.00 0.00 0.00 36 1008.4
20260504175104 76 353 5.2 7.0 0.00 0.00 0.00 36 1008.7
20260504174604 76 353 3.5 7.0 0.00 0.00 0.00 36 1008.7
20260504174103 74 354 2.6 6.1 0.00 0.00 0.00 37 1008.5
20260504173603 74 353 3.5 8.7 0.00 0.00 0.00 37 1008.8
20260504173104 75 351 3.5 8.7 0.00 0.00 0.00 39 1008.6
20260504172604 74 352 5.2 10.4 0.00 0.00 0.00 36 1008.8
20260504171604 75 354 3.5 7.8 0.00 0.00 0.00 39 1008.8
20260504171103 75 353 1.7 7.0 0.00 0.00 0.00 38 1009.0
20260504160105 71 354 2.6 5.2 0.00 0.00 0.00 46 1009.8
20260504151103 69 352 3.5 7.0 0.00 0.00 0.00 53 1010.0
20260504150604 69 354 2.6 5.2 0.00 0.00 0.00 54 1009.9
20260504150104 68 354 2.6 5.2 0.00 0.00 0.00 54 1009.8
20260504141103 66 353 3.5 7.0 0.00 0.00 0.00 58 1010.2
20260504140604 66 354 3.5 6.1 0.00 0.00 0.00 57 1010.3
20260504140104 65 351 2.6 6.1 0.00 0.00 0.00 59 1010.0
20260504130603 62 354 2.6 7.0 0.00 0.00 0.00 67 1010.6
20260504130104 61 353 3.5 7.0 0.00 0.00 0.00 68 1010.6
20260504120104 58 356 1.7 2.6 0.00 0.00 0.00 76 1010.7
20260504110604 53 358 0.9 1.7 0.00 0.00 0.00 85 1011.1
20260504110104 53 358 0.9 1.7 0.00 0.00 0.00 85 1011.0
20260504100604 51 357 0.0 0.9 0.00 0.00 0.00 88 1011.1
20260504100104 51 357 0.0 1.7 0.00 0.00 0.00 89 1011.2
20260504081603 51 358 0.9 4.3 0.00 0.00 0.00 91 1011.6
20260504081103 51 355 0.0 0.9 0.00 0.00 0.00 91 1011.5
20260504080604 51 355 0.9 2.6 0.00 0.00 0.00 91 1011.6
20260504080104 51 354 1.7 4.3 0.00 0.00 0.00 91 1011.6
20260504070104 50 351 0.9 1.7 0.00 0.00 0.00 92 1011.7
20260504050604 49 353 0.9 1.7 0.00 0.00 0.00 84 1011.9
20260504045604 49 353 0.0 0.9 0.00 0.00 0.00 85 1012.0
20260504045104 49 353 0.0 0.9 0.00 0.00 0.00 84 1011.9
20260504044603 50 353 0.0 0.9 0.00 0.00 0.00 83 1011.8
20260504044104 50 353 0.0 0.9 0.00 0.00 0.00 82 1011.8
20260504043103 48 353 0.0 0.9 0.00 0.00 0.00 84 1012.0
20260504042604 47 353 0.9 1.7 0.00 0.00 0.00 85 1011.8
20260504042104 47 353 0.0 1.7 0.00 0.00 0.00 87 1011.8
20260504041604 45 353 0.9 1.7 0.00 0.00 0.00 90 1011.9
20260504040603 46 353 0.0 0.9 0.00 0.00 0.00 91 1011.8
20260504040104 45 353 0.0 0.0 0.00 0.00 0.00 91 1011.6
20260504035603 45 353 0.0 0.0 0.00 0.00 0.00 91 1011.7
20260504035103 45 353 0.0 0.0 0.00 0.00 0.00 91 1011.8
20260504034603 46 353 0.0 0.9 0.00 0.00 0.00 91 1011.7
20260504034103 46 353 0.0 0.0 0.00 0.00 0.00 90 1011.7
20260504033103 46 353 0.0 0.0 0.00 0.00 0.00 89 1011.6
20260504032603 46 353 0.0 0.0 0.00 0.00 0.00 89 1011.6
20260504032104 46 353 0.0 0.0 0.00 0.00 0.00 88 1011.6
20260504031604 46 353 0.0 0.0 0.00 0.00 0.00 88 1011.5
20260504031103 47 353 0.0 0.0 0.00 0.00 0.00 87 1011.5
20260504030603 47 353 0.0 0.0 0.00 0.00 0.00 87 1011.4
20260504030104 47 353 0.0 0.0 0.00 0.00 0.00 87 1011.5
20260504025603 46 353 0.0 0.0 0.00 0.00 0.00 87 1011.5
20260504025103 46 353 0.0 0.9 0.00 0.00 0.00 87 1011.6
20260504024603 46 353 0.0 0.9 0.00 0.00 0.00 88 1011.7
20260504024104 46 353 0.0 0.9 0.00 0.00 0.00 86 1011.6
20260504023103 46 353 0.0 1.7 0.00 0.00 0.00 85 1011.7
20260504022604 46 353 0.9 1.7 0.00 0.00 0.00 86 1011.4
20260504022104 46 353 0.0 0.0 0.00 0.00 0.00 84 1011.7
20260504021604 47 353 0.0 0.9 0.00 0.00 0.00 83 1011.5
20260504021104 47 354 0.0 0.0 0.00 0.00 0.00 82 1011.5
20260504020604 47 354 0.0 0.0 0.00 0.00 0.00 81 1011.6
20260504015603 47 353 0.9 0.9 0.00 0.00 0.00 81 1011.5
20260504015103 48 353 0.0 0.9 0.00 0.00 0.00 79 1011.5
20260504014604 48 353 0.0 0.9 0.00 0.00 0.00 79 1011.4
20260504014104 48 353 0.9 0.9 0.00 0.00 0.00 78 1011.5
20260504013604 47 353 0.0 0.0 0.00 0.00 0.00 78 1011.5
20260504013103 47 352 0.0 0.0 0.00 0.00 0.00 78 1011.4
20260504012104 49 352 0.0 0.0 0.00 0.00 0.00 76 1011.3
20260504010603 50 352 0.0 0.9 0.00 0.00 0.00 73 1011.2
20260504010104 50 352 0.0 0.0 0.00 0.00 0.00 71 1011.2
20260504005603 50 352 0.0 0.0 0.00 0.00 0.00 70 1011.0
20260504005104 51 351 0.0 0.0 0.00 0.00 0.00 69 1011.1
20260504004603 51 351 0.0 0.0 0.00 0.00 0.00 68 1011.1
20260504004103 51 351 0.0 0.0 0.00 0.00 0.00 68 1011.0
20260504003103 52 351 0.0 0.0 0.00 0.00 0.00 64 1010.9
20260504002603 52 351 0.0 0.0 0.00 0.00 0.00 63 1010.8
20260504002104 53 351 0.0 0.0 0.00 0.00 0.00 61 1010.7
20260504001604 53 351 0.0 0.0 0.00 0.00 0.00 61 1010.6
20260504001104 54 351 0.0 0.0 0.00 0.00 0.00 59 1010.6
20260504000603 55 351 0.0 0.0 0.00 0.00 0.00 57 1010.4
20260504000104 56 351 0.0 0.9 0.00 0.00 0.00 55 1010.4
20260503235604 56 351 0.9 0.9 0.00 0.00 0.00 57 1010.3
20260503235104 57 351 0.0 0.9 0.00 0.00 0.00 53 1010.3
20260503234604 58 351 0.9 0.9 0.00 0.00 0.00 52 1010.2
20260503234104 59 351 0.9 1.7 0.00 0.00 0.00 46 1010.3
20260503233604 59 351 0.0 0.9 0.00 0.00 0.00 47 1010.4
20260503233103 59 351 0.9 1.7 0.00 0.00 0.00 44 1010.1
20260503232104 59 351 0.0 0.9 0.00 0.00 0.00 44 1010.1
20260503231604 60 351 0.0 0.9 0.00 0.00 0.00 46 1010.1
20260503231103 60 351 0.0 0.9 0.00 0.00 0.00 44 1010.1
20260503230604 61 351 0.0 0.9 0.00 0.00 0.00 42 1010.2
20260503225604 61 350 1.7 2.6 0.00 0.00 0.00 42 1010.2
20260503225104 62 351 0.0 1.7 0.00 0.00 0.00 42 1010.2
20260503224604 63 352 0.9 1.7 0.00 0.00 0.00 40 1010.2
20260503224104 63 350 0.9 5.2 0.00 0.00 0.00 40 1010.1
20260503223604 64 351 0.0 0.9 0.00 0.00 0.00 40 1010.2
20260503223103 64 352 0.9 4.3 0.00 0.00 0.00 39 1010.2
20260503222603 65 352 0.9 4.3 0.00 0.00 0.00 39 1010.1
20260503222103 65 353 1.7 4.3 0.00 0.00 0.00 37 1010.1
20260503221104 64 338 2.6 8.7 0.00 0.00 0.00 39 1010.2
20260503220603 65 351 2.6 5.2 0.00 0.00 0.00 36 1010.2
20260503220104 66 350 1.7 2.6 0.00 0.00 0.00 37 1010.2
20260503215104 65 353 0.9 1.7 0.00 0.00 0.00 39 1010.0
20260503214604 64 351 1.7 6.1 0.00 0.00 0.00 37 1010.0
20260503214104 64 351 1.7 4.3 0.00 0.00 0.00 36 1010.1
20260503213104 66 351 0.9 2.6 0.00 0.00 0.00 37 1009.9
20260503212104 64 352 1.7 7.0 0.00 0.00 0.00 37 1010.1
20260503211603 64 347 4.3 10.4 0.00 0.00 0.00 38 1010.1
20260503211104 65 341 4.3 10.4 0.00 0.00 0.00 37 1009.8
20260503210104 64 346 4.3 7.8 0.00 0.00 0.00 37 1009.8
20260503205604 65 354 1.7 2.6 0.00 0.00 0.00 38 1010.0
20260503204604 65 353 2.6 4.3 0.00 0.00 0.00 38 1009.8
20260503204103 64 354 1.7 5.2 0.00 0.00 0.00 40 1009.7
20260503203603 65 354 1.7 5.2 0.00 0.00 0.00 37 1009.9
20260503203103 65 355 1.7 5.2 0.00 0.00 0.00 39 1009.9
20260503202604 65 354 0.9 2.6 0.00 0.00 0.00 40 1010.0
20260503202104 65 357 2.6 6.1 0.00 0.00 0.00 40 1009.9
20260503201604 64 355 0.9 2.6 0.00 0.00 0.00 41 1010.1
20260503200604 63 350 3.5 8.7 0.00 0.00 0.00 42 1010.2
20260503200104 64 354 4.3 6.1 0.00 0.00 0.00 39 1010.2
20260503195604 63 354 1.7 7.8 0.00 0.00 0.00 40 1010.3